Mount Holly, NJ

10:41 AM EST on December 11, 2019 (GMT -0500)
South Jersey Regional

Weather History for KVAY - October, 2019

Change the Weather History Date:

Thursday, October 3, 2019

  Actual Average (KPNE) Record (KPNE)
Temperature  
Mean Temperature 66 °F -  
Max Temperature 72 °F 68 °F 84 °F (2002)
Min Temperature 60 °F 48 °F 36 °F (2003)
Cooling Degree Days 1    
Growing Degree Days 16 (Base 50)    
Moisture  
Dew Point 61 °F    
Average Humidity 92    
Maximum Humidity 100    
Minimum Humidity 75    
Precipitation  
Precipitation 0.06 in - - ()
Sea Level Pressure  
Sea Level Pressure 30.02 in    
Wind  
Wind Speed 6 mph (ENE)    
Max Wind Speed 12 mph    
Max Gust Speed -    
Visibility 5 miles    
Events Rain    
Averages and records for this station are not official NWS values.
T = Trace of Precipitation, MM = Missing Value Source: NWS Daily Summary

Daily Weather History Graph

Daily Weather History Graph

Search for Another Location

Airport or City:

Astronomy

Oct. 03, 2019 Rise Set
Actual Time 6:57 AM EDT 6:38 PM EDT
Civil Twilight 6:30 AM EDT 7:05 PM EDT
Nautical Twilight 5:59 AM EDT 7:37 PM EDT
Astronomical Twilight 5:27 AM EDT 8:08 PM EDT
Moon 12:25 PM EDT (10/3) 10:16 PM EDT (10/3)
Length of Visible Light 12h 35m
Length of Day
11h 41m
Waxing Crescent, 29% of the Moon is Illuminated
Oct 3
Waxing Crescent
Oct 5
First Quarter
Oct 13
Full
Oct 21
Last Quarter
Oct 27
New

Hourly Weather History & Observations

Time (EDT) Temp. Dew Point Humidity Pressure Visibility Wind Dir Wind Speed Gust Speed Precip Events Conditions
12:54 AM 72.0 °F 64.0 °F 76% 29.94 in 10.0 mi NE 8.1 mph - N/A   Overcast
1:22 AM 71.1 °F 63.0 °F 75% 29.95 in 10.0 mi NE 9.2 mph - N/A   Overcast
1:54 AM 70.0 °F 63.0 °F 78% 29.96 in 10.0 mi NE 6.9 mph - N/A   Overcast
2:54 AM 68.0 °F 64.9 °F 90% 29.96 in 4.0 mi East 8.1 mph - 0.01 in Rain Light Rain
2:58 AM 68.0 °F 64.9 °F 90% 29.96 in 4.0 mi East 8.1 mph - 0.00 in Rain Light Rain
3:23 AM 66.9 °F 64.9 °F 93% 29.97 in 8.0 mi East 6.9 mph - 0.00 in Rain Light Rain
3:54 AM 66.9 °F 64.0 °F 90% 29.98 in 10.0 mi ESE 4.6 mph - 0.00 in Rain Light Rain
4:11 AM 66.9 °F 64.0 °F 90% 29.98 in 9.0 mi Variable 5.8 mph - 0.00 in   Overcast
4:54 AM 66.0 °F 63.0 °F 90% 29.99 in 10.0 mi East 4.6 mph - 0.01 in   Overcast
5:15 AM 66.0 °F 62.1 °F 87% 30.01 in 10.0 mi Variable 6.9 mph - N/A   Overcast
5:54 AM 64.9 °F 62.1 °F 90% 30.02 in 10.0 mi East 9.2 mph - 0.00 in   Overcast
6:28 AM 64.0 °F 61.0 °F 90% 30.04 in 9.0 mi Variable 6.9 mph - N/A   Overcast
6:38 AM 63.0 °F 61.0 °F 93% 30.04 in 7.0 mi East 8.1 mph - N/A   Overcast
6:54 AM 63.0 °F 60.1 °F 90% 30.06 in 9.0 mi ENE 8.1 mph - 0.00 in   Overcast
7:49 AM 62.6 °F 60.8 °F 94% 30.08 in 7.0 mi Variable 6.9 mph - 0.02 in   Overcast
7:54 AM 62.1 °F 60.1 °F 93% 30.08 in 7.0 mi East 4.6 mph - 0.02 in   Overcast
8:38 AM 62.1 °F 59.0 °F 90% 30.08 in 7.0 mi East 8.1 mph - N/A   Overcast
8:54 AM 62.1 °F 59.0 °F 90% 30.08 in 9.0 mi East 8.1 mph - 0.00 in Rain Light Rain
9:13 AM 61.0 °F 59.0 °F 93% 30.08 in 4.0 mi East 9.2 mph - 0.00 in Rain Light Rain
9:36 AM 61.0 °F 59.0 °F 93% 30.09 in 2.5 mi ENE 6.9 mph - 0.02 in Rain Light Rain
9:51 AM 60.8 °F 59.0 °F 94% 30.08 in 4.0 mi East 11.5 mph - 0.02 in Rain Light Rain
9:54 AM 61.0 °F 57.9 °F 90% 30.09 in 5.0 mi Variable 5.8 mph - 0.02 in Rain Light Rain
10:28 AM 61.0 °F 59.0 °F 93% 30.09 in 10.0 mi Variable 5.8 mph - 0.00 in   Overcast
10:50 AM 60.8 °F 59.0 °F 94% 30.09 in 10.0 mi Variable 6.9 mph - 0.00 in   Overcast
10:54 AM 61.0 °F 59.0 °F 93% 30.09 in 8.0 mi Variable 5.8 mph - 0.00 in   Overcast
11:35 AM 60.1 °F 57.9 °F 93% 30.09 in 2.0 mi Variable 5.8 mph - N/A   Overcast
11:50 AM 60.8 °F 57.2 °F 88% 30.08 in 3.0 mi Variable 6.9 mph - N/A   Overcast
11:54 AM 61.0 °F 57.9 °F 90% 30.08 in 4.0 mi East 8.1 mph - N/A   Overcast
12:54 PM 61.0 °F 59.0 °F 93% 30.07 in 7.0 mi Variable 6.9 mph - N/A   Overcast
1:30 PM 61.0 °F 59.0 °F 93% 30.06 in 2.0 mi Variable 3.5 mph - N/A   Overcast
1:50 PM 60.8 °F 59.0 °F 94% 30.06 in 1.8 mi Calm Calm - N/A   Overcast
1:54 PM 61.0 °F 60.1 °F 97% 30.06 in 1.5 mi ENE 3.5 mph - N/A   Overcast
2:54 PM 62.1 °F 60.1 °F 93% 30.05 in 1.5 mi Variable 3.5 mph - N/A   Overcast
3:54 PM 62.1 °F 60.1 °F 93% 30.04 in 5.0 mi East 5.8 mph - N/A   Overcast
4:51 PM 62.6 °F 60.8 °F 94% 30.03 in 1.8 mi Variable 3.5 mph - N/A   Overcast
4:54 PM 62.1 °F 60.1 °F 93% 30.03 in 1.5 mi ENE 5.8 mph - N/A   Overcast
5:19 PM 62.1 °F 60.1 °F 93% 30.03 in 1.8 mi East 4.6 mph - N/A   Overcast
5:54 PM 61.0 °F 60.1 °F 97% 30.02 in 1.5 mi East 4.6 mph - N/A   Overcast
6:30 PM 62.1 °F 60.1 °F 93% 30.01 in 2.0 mi East 4.6 mph - N/A   Overcast
6:41 PM 62.1 °F 60.1 °F 93% 30.01 in 4.0 mi East 3.5 mph - N/A   Overcast
6:54 PM 62.1 °F 60.1 °F 93% 30.00 in 4.0 mi Calm Calm - N/A   Overcast
7:54 PM 62.1 °F 61.0 °F 96% 29.99 in 4.0 mi Calm Calm - N/A   Overcast
8:50 PM 62.6 °F 60.8 °F 94% 29.99 in 2.5 mi East 3.5 mph - N/A   Overcast
8:54 PM 63.0 °F 61.0 °F 93% 29.98 in 2.5 mi Calm Calm - N/A   Overcast
9:24 PM 63.0 °F 61.0 °F 93% 29.97 in 1.8 mi Calm Calm - N/A   Overcast
9:36 PM 63.0 °F 62.1 °F 97% 29.97 in 2.0 mi Calm Calm - N/A   Overcast
9:54 PM 63.0 °F 61.0 °F 93% 29.96 in 2.0 mi Calm Calm - N/A   Overcast
10:02 PM 63.0 °F 61.0 °F 93% 29.96 in 1.8 mi NNE 4.6 mph - N/A   Overcast
10:54 PM 63.0 °F 62.1 °F 97% 29.94 in 1.2 mi Calm Calm - N/A   Overcast
11:05 PM 63.0 °F 62.1 °F 97% 29.94 in 1.0 mi Calm Calm - N/A   Mist
11:23 PM 63.0 °F 62.1 °F 97% 29.94 in 1.2 mi NNW 3.5 mph - N/A   Overcast
11:52 PM 62.6 °F 62.6 °F 100% 29.94 in 1.0 mi North 3.5 mph - N/A   Mist
11:54 PM 63.0 °F 62.1 °F 97% 29.95 in 1.0 mi NNW 5.8 mph - N/A   Mist